H1 CPF 2 NER 2024 7 10 9 192 01 glonass145 H2 2213001 9145 54031 2024 7 10 0 0 0 2024 7 13 23 45 0 900 1 1 0 0 0 1 H9 10 0 60501 0.00000 0 -9915113.607 5050020.011 22953643.989 10 0 60501 900.00000 0 -11766090.316 2948117.913 22437770.797 10 0 60501 1800.00000 0 -13701720.472 1050432.143 21486081.543 10 0 60501 2700.00000 0 -15663410.342 -607022.910 20116958.512 10 0 60501 3600.00000 0 -17588181.265 -1999845.668 18356904.255 10 0 60501 4500.00000 0 -19411204.187 -3116030.683 16240035.151 10 0 60501 5400.00000 0 -21068432.963 -3956225.476 13807425.459 10 0 60501 6300.00000 0 -22499226.356 -4533450.586 11106313.795 10 0 60501 7200.00000 0 -23648848.618 -4872295.085 8189186.952 10 0 60501 8100.00000 0 -24470743.205 -5007622.050 5112758.587 10 0 60501 9000.00000 0 -24928483.368 -4982839.347 1936862.714 10 0 60501 9900.00000 0 -24997316.745 -4847809.713 -1276716.009 10 0 60501 10800.00000 0 -24665238.142 -4656489.607 -4465451.719 10 0 60501 11700.00000 0 -23933544.667 -4464398.007 -7567302.062 10 0 60501 12600.00000 0 -22816849.337 -4326023.636 -10521923.306 10 0 60501 13500.00000 0 -21342552.397 -4292281.708 -13271851.194 10 0 60501 14400.00000 0 -19549792.584 -4408129.051 -15763623.792 10 0 60501 15300.00000 0 -17487922.621 -4710439.580 -17948823.845 10 0 60501 16200.00000 0 -15214573.284 -5226230.760 -19785020.157 10 0 60501 17100.00000 0 -12793387.458 -5971316.574 -21236589.755 10 0 60501 18000.00000 0 -10291519.282 -6949444.283 -22275405.240 10 0 60501 18900.00000 0 -7777002.923 -8151951.613 -22881374.594 10 0 60501 19800.00000 0 -5316100.506 -9557959.057 -23042823.713 10 0 60501 20700.00000 0 -2970739.265 -11135089.412 -22756715.052 10 0 60501 21600.00000 0 -796143.763 -12840684.622 -22028698.889 10 0 60501 22500.00000 0 1161239.402 -14623469.279 -20872996.832 10 0 60501 23400.00000 0 2865439.387 -16425591.466 -19312120.260 10 0 60501 24300.00000 0 4292212.296 -18184956.004 -17376429.415 10 0 60501 25200.00000 0 5429795.315 -19837752.960 -15103541.740 10 0 60501 26100.00000 0 6279134.079 -21321076.079 -12537600.858 10 0 60501 27000.00000 0 6853575.430 -22575522.011 -9728420.194 10 0 60501 27900.00000 0 7178040.065 -23547661.934 -6730517.588 10 0 60501 28800.00000 0 7287711.145 -24192282.322 -3602059.450 10 0 60501 29700.00000 0 7226295.187 -24474301.199 -403734.755 10 0 60501 30600.00000 0 7043929.358 -24370279.669 2802419.459 10 0 60501 31500.00000 0 6794824.082 -23869465.313 5954218.320 10 0 60501 32400.00000 0 6534740.862 -22974323.625 8990531.906 10 0 60501 33300.00000 0 6318412.095 -21700534.931 11852467.376 10 0 60501 34200.00000 0 6197011.981 -20076456.543 14484507.603 10 0 60501 35100.00000 0 6215785.439 -18142072.163 16835584.527 10 0 60501 36000.00000 0 6411935.219 -15947471.768 18860066.680 10 0 60501 36900.00000 0 6812856.623 -13550924.733 20518642.140 10 0 60501 37800.00000 0 7434794.622 -11016625.662 21779080.152 10 0 60501 38700.00000 0 8281980.627 -8412205.906 22616857.048 10 0 60501 39600.00000 0 9346286.127 -5806113.398 23015634.538 10 0 60501 40500.00000 0 10607408.965 -3264968.801 22967581.183 10 0 60501 41400.00000 0 12033585.816 -851007.001 22473530.666 10 0 60501 42300.00000 0 13582802.484 1380290.496 21542973.402 10 0 60501 43200.00000 0 15204452.774 3382274.461 20193881.032 10 0 60501 44100.00000 0 16841377.780 5118832.221 18452366.408 10 0 60501 45000.00000 0 18432201.188 6565646.728 16352184.762 10 0 60501 45900.00000 0 19913863.446 7710958.305 13934084.870 10 0 60501 46800.00000 0 21224248.814 8555797.662 11245021.996 10 0 60501 47700.00000 0 22304794.898 9113680.856 8337247.370 10 0 60501 48600.00000 0 23102974.546 9409779.649 5267291.624 10 0 60501 49500.00000 0 23574544.966 9479602.893 2094861.996 10 0 60501 50400.00000 0 23685468.416 9367245.488 -1118324.776 10 0 60501 51300.00000 0 23413422.581 9123279.927 -4309750.492 10 0 60501 52200.00000 0 22748836.042 8802380.790 -7417320.026 10 0 60501 53100.00000 0 21695404.392 8460783.989 -10380577.484 10 0 60501 54000.00000 0 20270064.713 8153689.595 -13141889.338 10 0 60501 54900.00000 0 18502429.111 7932719.339 -15647570.700 10 0 60501 55800.00000 0 16433701.005 7843537.417 -17848932.195 10 0 60501 56700.00000 0 14115119.694 7923735.968 -19703226.809 10 0 60501 57600.00000 0 11605998.480 8201075.129 -21174478.382 10 0 60501 58500.00000 0 8971438.565 8692152.243 -22234175.954 10 0 60501 59400.00000 0 6279814.158 9401556.447 -22861821.110 10 0 60501 60300.00000 0 3600133.497 10321544.246 -23045318.448 10 0 60501 61200.00000 0 999385.252 11432249.651 -22781202.371 10 0 60501 62100.00000 0 -1460019.989 12702420.013 -22074696.598 10 0 60501 63000.00000 0 -3722607.777 14090646.706 -20939605.851 10 0 60501 63900.00000 0 -5741900.581 15547039.124 -19398042.293 10 0 60501 64800.00000 0 -7482097.033 17015272.026 -17479992.271 10 0 60501 65700.00000 0 -8919301.376 18434920.695 -15222731.842 10 0 60501 66600.00000 0 -10042253.534 19743986.315 -12670102.318 10 0 60501 67500.00000 0 -10852531.030 20881506.049 -9871659.714 10 0 60501 68400.00000 0 -11364215.955 21790138.630 -6881714.344 10 0 60501 69300.00000 0 -11603042.420 22418617.203 -3758278.985 10 0 60501 70200.00000 0 -11605061.561 22723966.613 -561945.814 10 0 60501 71100.00000 0 -11414881.322 22673392.089 2645286.223 10 0 60501 72000.00000 0 -11083555.936 22245759.887 5801210.947 10 0 60501 72900.00000 0 -10666214.627 21432607.538 8844618.184 10 0 60501 73800.00000 0 -10219529.940 20238640.887 11716477.485 10 0 60501 74700.00000 0 -9799132.670 18681696.545 14361079.471 10 0 60501 75600.00000 0 -9457082.548 16792170.660 16727112.911 10 0 60501 76500.00000 0 -9239501.373 14611937.007 18768656.970 10 0 60501 77400.00000 0 -9184468.428 12192798.677 20446069.713 10 0 60501 78300.00000 0 -9320266.969 9594536.855 21726756.067 10 0 60501 79200.00000 0 -9664055.943 6882636.819 22585800.705 10 0 60501 80100.00000 0 -10221023.317 4125784.664 23006453.800 10 0 60501 81000.00000 0 -10984057.385 1393237.674 22980460.350 10 0 60501 81900.00000 0 -11933950.849 -1247823.496 22508226.531 10 0 60501 82800.00000 0 -13040130.245 -3734851.699 21598819.497 10 0 60501 83700.00000 0 -14261881.344 -6012293.837 20269800.009 10 0 60501 84600.00000 0 -15550020.286 -8033657.539 18546890.374 10 0 60501 85500.00000 0 -16848941.320 -9763198.440 16463483.242 10 0 60502 0.00000 0 -18098955.831 -11177158.010 14060000.134 10 0 60502 900.00000 0 -19238825.434 -12264501.314 11383110.011 10 0 60502 1800.00000 0 -20208380.968 -13027122.388 8484825.793 10 0 60502 2700.00000 0 -20951119.036 -13479511.606 5421491.793 10 0 60502 3600.00000 0 -21416664.318 -13647897.674 2252684.938 10 0 60502 4500.00000 0 -21562993.584 -13568902.005 -959949.658 10 0 60502 5400.00000 0 -21358326.378 -13287763.025 -4153905.235 10 0 60502 6300.00000 0 -20782601.528 -12856206.573 -7267037.674 10 0 60502 7200.00000 0 -19828476.108 -12330053.605 -10238782.633 10 0 60502 8100.00000 0 -18501803.907 -11766667.664 -13011340.886 10 0 60502 9000.00000 0 -16821572.530 -11222351.242 -15530807.935 10 0 60502 9900.00000 0 -14819301.365 -10749802.177 -17748225.304 10 0 60502 10800.00000 0 -12537925.414 -10395738.377 -19620532.762 10 0 60502 11700.00000 0 -10030211.635 -10198791.705 -21111403.024 10 0 60502 12600.00000 0 -7356774.016 -10187760.132 -22191943.038 10 0 60502 13500.00000 0 -4583770.147 -10380291.794 -22841248.810 10 0 60502 14400.00000 0 -1780375.106 -10782056.168 -23046803.797 10 0 60502 15300.00000 0 983862.545 -11386436.886 -22804713.890 10 0 60502 16200.00000 0 3641673.318 -12174758.729 -22119775.225 10 0 60502 17100.00000 0 6130618.560 -13117038.922 -21005374.133 10 0 60502 18000.00000 0 8395436.411 -14173230.944 -19483221.641 10 0 60502 18900.00000 0 10390085.780 -15294908.487 -17582927.939 10 0 60502 19800.00000 0 12079404.795 -16427318.883 -15341425.124 10 0 60502 20700.00000 0 13440316.158 -17511719.848 -12802249.363 10 0 60502 21600.00000 0 14462530.813 -18487901.573 -10014696.212 10 0 60502 22500.00000 0 15148722.045 -19296788.373 -7032865.224 10 0 60502 23400.00000 0 15514164.236 -19883010.686 -3914612.175 10 0 60502 24300.00000 0 15585852.751 -20197339.398 -720429.049 10 0 60502 25200.00000 0 15401143.040 -20198880.087 2487726.663 10 0 60502 26100.00000 0 15005967.090 -19856934.799 5647630.704 10 0 60502 27000.00000 0 14452702.997 -19152452.777 8697995.644 10 0 60502 27900.00000 0 13797787.820 -18079008.738 11579656.126 10 0 60502 28800.00000 0 13099174.574 -16643266.984 14236712.835 10 0 60502 29700.00000 0 12413740.579 -14864911.073 16617613.284 10 0 60502 30600.00000 0 11794756.323 -12776040.992 18676148.733 10 0 60502 31500.00000 0 11289521.347 -10420061.907 20372348.267 10 0 60502 32400.00000 0 10937266.567 -7850109.616 21673253.085 10 0 60502 33300.00000 0 10767411.279 -5127076.964 22553556.364 10 0 60502 34200.00000 0 10798248.308 -2317322.049 22996096.522 10 0 60502 35100.00000 0 11036112.849 509847.849 22992194.416 10 0 60502 36000.00000 0 11475070.505 3284813.333 22541827.835 10 0 60502 36900.00000 0 12097138.322 5940292.497 21653639.523 10 0 60502 37800.00000 0 12873030.409 8413893.937 20344777.998 10 0 60502 38700.00000 0 13763397.758 10650467.825 18640573.478 10 0 60502 39600.00000 0 14720510.976 12604157.714 16574054.330 10 0 60502 40500.00000 0 15690315.890 14240068.014 14185312.529 10 0 60502 41400.00000 0 16614775.951 15535477.824 11520729.634 10 0 60502 42300.00000 0 17434402.855 16480550.614 8632077.755 10 0 60502 43200.00000 0 18090868.464 17078510.321 5575512.668 10 0 60502 44100.00000 0 18529587.222 17345276.910 2410478.667 10 0 60502 45000.00000 0 18702159.132 17308577.291 -801453.145 10 0 60502 45900.00000 0 18568569.037 17006569.849 -3997789.854 10 0 60502 46800.00000 0 18099048.079 16486041.587 -7116340.696 10 0 60502 47700.00000 0 17275517.553 15800255.116 -10096435.122 10 0 60502 48600.00000 0 16092553.095 15006537.630 -12880110.268 10 0 60502 49500.00000 0 14557827.618 14163714.915 -15413243.898 10 0 60502 50400.00000 0 12692013.613 13329499.816 -17646610.092 10 0 60502 51300.00000 0 10528148.361 12557946.279 -19536836.866 10 0 60502 52200.00000 0 8110488.285 11897076.903 -21047247.129 10 0 60502 53100.00000 0 5492900.146 11386784.270 -22148566.899 10 0 60502 54000.00000 0 2736856.059 11057094.346 -22819487.658 10 0 60502 54900.00000 0 -90884.367 10926864.656 -23047072.626 10 0 60502 55800.00000 0 -2920808.600 11002971.426 -22826999.897 10 0 60502 56700.00000 0 -5683297.590 11280019.151 -22163638.492 10 0 60502 57600.00000 0 -8311274.832 11740584.073 -21069956.501 10 0 60502 58500.00000 0 -10742748.884 12355980.699 -19567263.608 10 0 60502 59400.00000 0 -12923144.859 13087518.619 -17684793.247 10 0 60502 60300.00000 0 -14807329.242 13888196.437 -15459132.583 10 0 60502 61200.00000 0 -16361245.096 14704761.380 -12933511.325 10 0 60502 62100.00000 0 -17563090.983 15480047.886 -10156962.947 10 0 60502 63000.00000 0 -18403995.811 16155496.770 -7183374.372 10 0 60502 63900.00000 0 -18888162.770 16673748.964 -4070442.302 10 0 60502 64800.00000 0 -19032477.580 16981204.632 -878556.272 10 0 60502 65700.00000 0 -18865598.618 17030439.839 2330370.105 10 0 60502 66600.00000 0 -18426568.023 16782378.844 5494097.049 10 0 60502 67500.00000 0 -17763002.909 16208130.264 8551262.570 10 0 60502 68400.00000 0 -16928943.247 15290409.385 11442569.191 10 0 60502 69300.00000 0 -15982447.281 14024486.170 14111930.526 10 0 60502 70200.00000 0 -14983035.761 12418618.303 16507555.697 10 0 60502 71100.00000 0 -13989092.430 10493950.053 18582950.880 10 0 60502 72000.00000 0 -13055329.969 8283879.945 20297818.860 10 0 60502 72900.00000 0 -12230427.623 5832922.280 21618839.591 10 0 60502 73800.00000 0 -11554939.585 3195108.478 22520316.965 10 0 60502 74700.00000 0 -11059561.790 431993.299 22984679.517 10 0 60502 75600.00000 0 -10763829.857 -2389652.616 23002825.460 10 0 60502 76500.00000 0 -10675302.955 -5200369.445 22574305.247 10 0 60502 77400.00000 0 -10789268.150 -7930650.398 21707337.796 10 0 60502 78300.00000 0 -11088978.100 -10513590.754 20418659.459 10 0 60502 79200.00000 0 -11546412.656 -12887434.474 18733207.931 10 0 60502 80100.00000 0 -12123532.934 -14997913.037 16683646.341 10 0 60502 81000.00000 0 -12773975.574 -16800279.454 14309735.886 10 0 60502 81900.00000 0 -13445116.195 -18260952.847 11657568.366 10 0 60502 82800.00000 0 -14080415.112 -19358704.951 8778672.949 10 0 60502 83700.00000 0 -14621946.140 -20085338.986 5729014.187 10 0 60502 84600.00000 0 -15013001.106 -20445832.581 2567900.762 10 0 60502 85500.00000 0 -15200659.187 -20457939.088 -643173.443 10 0 60503 0.00000 0 -15138211.352 -20151264.614 -3841732.458 10 0 60503 900.00000 0 -14787336.083 -19565860.200 -6965542.969 10 0 60503 1800.00000 0 -14119933.237 -18750389.916 -9953831.511 10 0 60503 2700.00000 0 -13119537.245 -17759952.704 -12748475.172 10 0 60503 3600.00000 0 -11782248.847 -16653651.303 -15295137.468 10 0 60503 4500.00000 0 -10117145.203 -15492011.787 -17544328.344 10 0 60503 5400.00000 0 -8146150.292 -14334363.398 -19452367.073 10 0 60503 6300.00000 0 -5903370.456 -13236289.663 -20982229.337 10 0 60503 7200.00000 0 -3433922.462 -12247258.425 -22104262.315 10 0 60503 8100.00000 0 -792302.707 -11408530.350 -22796754.467 10 0 60503 9000.00000 0 1959634.790 -10751433.420 -23046349.682 10 0 60503 9900.00000 0 4755007.719 -10296075.161 -22848298.576 10 0 60503 10800.00000 0 7524445.744 -10050545.775 -22206542.816 10 0 60503 11700.00000 0 10198736.780 -10010644.557 -21133631.522 10 0 60503 12600.00000 0 12711470.047 -10160140.099 -19650471.837 10 0 60503 13500.00000 0 15001567.037 -10471552.350 -17785918.814 10 0 60503 14400.00000 0 17015596.269 -10907422.901 -15576212.653 10 0 60503 15300.00000 0 18709776.610 -11422019.446 -13064274.152 10 0 60503 16200.00000 0 20051586.985 -11963402.259 -10298871.862 10 0 60503 17100.00000 0 21020916.542 -12475765.419 -7333676.860 10 0 60503 18000.00000 0 21610708.432 -12901953.953 -4226223.253 10 0 60503 18900.00000 0 21827071.363 -13186050.711 -1036794.389 10 0 60503 19800.00000 0 21688855.316 -13275923.800 2172743.822 10 0 60503 20700.00000 0 21226710.023 -13125626.979 5340139.872 10 0 60503 21600.00000 0 20481666.453 -12697551.580 8403960.816 10 0 60503 22500.00000 0 19503301.352 -11964238.859 11304780.367 10 0 60503 23400.00000 0 18347562.271 -10909775.874 13986327.971 10 0 60503 24300.00000 0 17074344.552 -9530715.386 16396576.806 10 0 60503 25200.00000 0 15744921.979 -7836480.099 18488749.901 10 0 60503 26100.00000 0 14419338.753 -5849233.063 20222225.182 10 0 60503 27000.00000 0 13153871.925 -3603218.202 21563322.295 10 0 60503 27900.00000 0 11998670.332 -1143596.910 22485956.313 10 0 60503 28800.00000 0 10995668.668 1475172.404 22972145.901 10 0 60503 29700.00000 0 10176863.809 4191346.034 23012366.208 10 0 60503 30600.00000 0 9563025.410 6938215.878 22605739.551 10 0 60503 31500.00000 0 9162894.766 9646644.439 21760059.857 10 0 60503 32400.00000 0 8972905.583 12247709.826 20491649.839 10 0 60503 33300.00000 0 8977438.553 14675351.727 18825052.917 10 0 60503 34200.00000 0 9149599.268 16868908.915 16792565.002 10 0 60503 35100.00000 0 9452486.997 18775443.015 14433614.340 10 0 60503 36000.00000 0 9840901.023 20351751.748 11794000.628 10 0 60503 36900.00000 0 10263412.583 21565987.501 8925007.605 10 0 60503 37800.00000 0 10664714.678 22398813.414 5882406.001 10 0 60503 38700.00000 0 10988149.949 22844048.409 2725366.201 10 0 60503 39600.00000 0 11178308.878 22908774.133 -484697.839 10 0 60503 40500.00000 0 11183587.360 22612899.506 -3685330.337 10 0 60503 41400.00000 0 10958594.168 21988201.671 -6814256.836 10 0 60503 42300.00000 0 10466305.124 21076884.402 -9810603.917 10 0 60503 43200.00000 0 9679871.575 19929715.599 -12616090.762 10 0 60503 44100.00000 0 8584005.491 18603823.316 -15176168.525 10 0 60503 45000.00000 0 7175881.657 17160244.179 -17441084.627 10 0 60503 45900.00000 0 5465518.006 15661328.288 -19366850.957 10 0 60503 46800.00000 0 3475617.312 14168110.446 -20916097.114 10 0 60503 47700.00000 0 1240876.278 12737758.587 -22058792.387 10 0 60503 48600.00000 0 -1193209.554 11421206.546 -22772822.981 10 0 60503 49500.00000 0 -3771995.634 10261070.110 -23044414.045 10 0 60503 50400.00000 0 -6433724.550 9289933.034 -22868389.078 10 0 60503 51300.00000 0 -9111864.205 8529073.800 -22248262.491 10 0 60503 52200.00000 0 -11737651.314 7987685.278 -21196164.200 10 0 60503 53100.00000 0 -14242735.107 7662618.661 -19732598.237 10 0 60503 54000.00000 0 -16561812.124 7538661.100 -17886040.344 10 0 60503 54900.00000 0 -18635143.407 7589334.162 -15692382.495 10 0 60503 55800.00000 0 -20410850.277 7778178.520 -13194235.038 10 0 60503 56700.00000 0 -21846894.053 8060470.008 -10440099.839 10 0 60503 57600.00000 0 -22912658.183 8385294.153 -7483430.202 10 0 60503 58500.00000 0 -23590067.648 8697891.340 -4381595.587 10 0 60503 59400.00000 0 -23874199.785 8942173.396 -1194770.987 10 0 60503 60300.00000 0 -23773361.768 9063305.207 2015227.649 10 0 60503 61200.00000 0 -23308632.221 9010242.205 5186139.455 10 0 60503 62100.00000 0 -22512886.726 8738116.394 8256463.009 10 0 60503 63000.00000 0 -21429348.567 8210369.935 11166645.782 10 0 60503 63900.00000 0 -20109725.715 7400545.827 13860235.680 10 0 60503 64800.00000 0 -18612012.317 6293659.609 16284972.565 10 0 60503 65700.00000 0 -16998046.764 4887093.461 18393798.879 10 0 60503 66600.00000 0 -15330928.462 3190974.001 20145770.097 10 0 60503 67500.00000 0 -13672401.119 1228016.576 21506847.735 10 0 60503 68400.00000 0 -12080311.637 -967159.045 22450559.938 10 0 60503 69300.00000 0 -10606250.421 -3349214.677 22958517.043 10 0 60503 70200.00000 0 -9293471.343 -5863733.741 23020772.312 10 0 60503 71100.00000 0 -8175177.866 -8449248.702 22636020.710 10 0 60503 72000.00000 0 -7273246.732 -11039573.135 21811631.560 10 0 60503 72900.00000 0 -6597442.362 -13566342.739 20563513.925 10 0 60503 73800.00000 0 -6145154.723 -15961660.720 18915816.534 10 0 60503 74700.00000 0 -5901671.620 -18160738.104 16900467.262 10 0 60503 75600.00000 0 -5840973.872 -20104419.445 14556560.196 10 0 60503 76500.00000 0 -5927019.882 -21741488.679 11929601.361 10 0 60503 77400.00000 0 -6115465.247 -23030658.637 9070627.157 10 0 60503 78300.00000 0 -6355744.527 -23942160.715 6035212.285 10 0 60503 79200.00000 0 -6593426.603 -24458867.732 2882386.382 10 0 60503 80100.00000 0 -6772743.241 -24576902.557 -326519.204 10 0 60503 81000.00000 0 -6839182.782 -24305706.819 -3529071.468 10 0 60503 81900.00000 0 -6742037.950 -23667566.868 -6662958.416 10 0 60503 82800.00000 0 -6436798.575 -22696617.293 -9667209.557 10 0 60503 83700.00000 0 -5887286.618 -21437364.523 -12483389.424 10 0 60503 84600.00000 0 -5067441.934 -19942793.416 -15056740.071 10 0 60503 85500.00000 0 -3962682.133 -18272137.360 -17337249.584 10 0 60504 0.00000 0 -2570778.328 -16488406.639 -19280625.307 10 0 60504 900.00000 0 -902208.232 -14655778.620 -20849153.813 10 0 60504 1800.00000 0 1020027.012 -12836962.107 -22012428.618 10 0 60504 2700.00000 0 3161117.650 -11090643.310 -22747935.530 10 0 60504 3600.00000 0 5475660.562 -9469122.457 -23041482.308 10 0 60504 4500.00000 0 7909325.335 -8016238.386 -22887466.183 10 0 60504 5400.00000 0 10400902.025 -6765667.082 -22288974.668 10 0 60504 6300.00000 0 12884645.811 -5739664.002 -21257718.381 10 0 60504 7200.00000 0 15292821.510 -4948301.378 -19813797.687 10 0 60504 8100.00000 0 17558342.652 -4389230.819 -17985308.035 10 0 60504 9000.00000 0 19617396.062 -4047979.653 -15807791.730 10 0 60504 9900.00000 0 21411943.311 -3898767.147 -13323546.753 10 0 60504 10800.00000 0 22891995.630 -3905805.077 -10580805.891 10 0 60504 11700.00000 0 24017568.157 -4025026.953 -7632801.808 10 0 60504 12600.00000 0 24760232.644 -4206172.290 -4536736.030 10 0 60504 13500.00000 0 25104204.412 -4395137.471 -1352671.594 10 0 60504 14400.00000 0 25046918.710 -4536493.644 1857629.338 10 0 60504 15300.00000 0 24599072.817 -4576065.023 5031900.416 10 0 60504 16200.00000 0 23784132.544 -4463458.503 8108575.535 10 0 60504 17100.00000 0 22637324.087 -4154437.487 11027979.508 10 0 60504 18000.00000 0 21204153.575 -3613039.394 13733481.954 10 0 60504 18900.00000 0 19538516.347 -2813347.046 16172592.276 10 0 60504 19800.00000 0 17700474.919 -1740838.574 18297974.748 10 0 60504 20700.00000 0 15753798.349 -393258.140 20068364.339 10 0 60504 21600.00000 0 13763365.422 1219030.320 21449365.923 10 0 60504 22500.00000 0 11792539.647 3073222.604 22414121.722 10 0 60504 23400.00000 0 9900625.087 5134781.124 22943834.304 10 0 60504 24300.00000 0 8140508.630 7358641.347 23028135.130 10 0 60504 25200.00000 0 6556586.477 9690869.249 22665291.435 10 0 60504 26100.00000 0 5183060.909 12070702.346 21862247.126 10 0 60504 27000.00000 0 4042678.005 14432890.746 20634496.360 10 0 60504 27900.00000 0 3145958.689 16710241.955 19005791.535 10 0 60504 28800.00000 0 2490954.998 18836264.227 17007690.505 10 0 60504 29700.00000 0 2063541.523 20747798.753 14678950.920 10 0 60504 30600.00000 0 1838229.450 22387530.976 12064782.603 10 0 60504 31500.00000 0 1779468.642 23706275.848 9215971.901 10 0 60504 32400.00000 0 1843382.366 24664941.001 6187894.615 10 0 60504 33300.00000 0 1979860.795 25236085.006 3039436.663 10 0 60504 34200.00000 0 2134923.966 25405004.710 -168156.231 10 0 60504 35100.00000 0 2253253.139 25170305.552 -3372476.812 10 0 60504 36000.00000 0 2280782.221 24543930.557 -6511178.437 10 0 60504 36900.00000 0 2167238.173 23550646.770 -9523196.222 10 0 60504 37800.00000 0 1868521.512 22227010.932 -12349942.482 10 0 60504 38700.00000 0 1348824.871 20619858.391 -14936452.310 10 0 60504 39600.00000 0 582398.840 18784379.358 -17232456.270 10 0 60504 40500.00000 0 -445110.489 16781864.019 -19193358.991 10 0 60504 41400.00000 0 -1735809.557 14677211.704 -20781104.547 10 0 60504 42300.00000 0 -3279227.497 12536309.002 -21964912.025 10 0 60504 43200.00000 0 -5052522.849 10423386.740 -22721867.555 10 0 60504 44100.00000 0 -7021218.652 8398466.174 -23037361.965 10 0 60504 45000.00000 0 -9140435.530 6515000.594 -22905366.405 10 0 60504 45900.00000 0 -11356571.699 4817809.871 -22328541.364 10 0 60504 46800.00000 0 -13609360.183 3341392.936 -21318177.686 10 0 60504 47700.00000 0 -15834217.923 2108687.168 -19893971.239 10 0 60504 48600.00000 0 -17964789.394 1130324.819 -18083635.979 10 0 60504 49500.00000 0 -19935579.301 404415.890 -15922363.022 10 0 60504 50400.00000 0 -21684565.164 -83135.170 -13452136.202 10 0 60504 51300.00000 0 -23155681.420 -357793.736 -10720917.220 10 0 60504 52200.00000 0 -24301071.954 -455076.712 -7781715.959 10 0 60504 53100.00000 0 -25083017.441 -418808.212 -4691563.759 10 0 60504 54000.00000 0 -25475457.410 -299023.551 -1510409.358 10 0 60504 54900.00000 0 -25465043.705 -149610.572 1700041.276 10 0 60504 55800.00000 0 -25051681.536 -25788.293 4877518.796 10 0 60504 56700.00000 0 -24248535.645 18470.320 7960394.974 10 0 60504 57600.00000 0 -23081501.392 -67037.631 10888874.556 10 0 60504 58500.00000 0 -21588162.861 -326381.030 13606151.477 10 0 60504 59400.00000 0 -19816281.435 -795390.970 16059507.216 10 0 60504 60300.00000 0 -17821877.722 -1499906.349 18201330.270 10 0 60504 61200.00000 0 -15666986.602 -2454443.411 19990037.277 10 0 60504 62100.00000 0 -13417178.575 -3661346.141 21390878.341 10 0 60504 63000.00000 0 -11138950.183 -5110454.371 22376611.292 10 0 60504 63900.00000 0 -8897091.618 -6779304.939 22928032.067 10 0 60504 64800.00000 0 -6752140.494 -8633859.068 23034351.082 10 0 60504 65700.00000 0 -4758027.102 -10629727.266 22693408.223 10 0 60504 66600.00000 0 -2960008.650 -12713842.229 21911721.996 10 0 60504 67500.00000 0 -1392977.960 -14826511.515 20704371.339 10 0 60504 68400.00000 0 -80216.681 -16903765.612 19094711.687 10 0 60504 69300.00000 0 967355.348 -18879904.429 17113929.928 10 0 60504 70200.00000 0 1751403.599 -20690136.481 14800446.020 10 0 60504 71100.00000 0 2285866.277 -22273200.722 12199172.042 10 0 60504 72000.00000 0 2596119.243 -23573861.147 9360642.451 10 0 60504 72900.00000 0 2717654.161 -24545169.236 6340032.067 10 0 60504 73800.00000 0 2694326.307 -25150398.682 3196080.779 10 0 60504 74700.00000 0 2576246.892 -25364570.353 -10053.795 10 0 60504 75600.00000 0 2417410.064 -25175502.674 -3215992.805 10 0 60504 76500.00000 0 2273156.209 -24584342.572 -6359357.713 10 0 60504 77400.00000 0 2197580.256 -23605554.249 -9378992.112 10 0 60504 78300.00000 0 2240996.048 -22266366.075 -12216159.017 10 0 60504 79200.00000 0 2447565.403 -20605698.931 -14815689.484 10 0 60504 80100.00000 0 2853193.362 -18672621.372 -17127059.420 10 0 60504 81000.00000 0 3483779.538 -16524396.885 -19105373.284 10 0 60504 81900.00000 0 4353900.243 -14224205.593 -20712235.458 10 0 60504 82800.00000 0 5465977.525 -11838636.206 -21916492.547 10 0 60504 83700.00000 0 6809970.578 -9435053.308 -22694832.735 10 0 60504 84600.00000 0 8363602.870 -7078949.811 -23032231.234 10 0 60504 85500.00000 0 10093115.726 -4831394.679 -22922233.988 99